TimeCDT,TemperatureF,Dew PointF,Humidity,Sea Level PressureIn,VisibilityMPH,Wind Direction,Wind SpeedMPH,Gust SpeedMPH,PrecipitationIn,Events,Conditions,WindDirDegrees,DateUTC
12:54 AM,37.0,27.0,67,30.33,10.0,NW,9.2,-,N/A,,Clear,310,2012-10-05 05:54:00
1:54 AM,33.1,26.1,75,30.31,10.0,NW,8.1,-,N/A,,Clear,310,2012-10-05 06:54:00
3:54 AM,33.1,26.1,75,30.31,10.0,WNW,6.9,-,N/A,,Clear,300,2012-10-05 08:54:00
4:54 AM,33.1,26.1,75,30.31,10.0,WNW,4.6,-,N/A,,Clear,290,2012-10-05 09:54:00
5:54 AM,33.1,26.1,75,30.30,10.0,Calm,Calm,-,N/A,,Clear,0,2012-10-05 10:54:00
6:54 AM,35.1,27.0,72,30.32,10.0,Calm,Calm,-,N/A,,Clear,0,2012-10-05 11:54:00
7:54 AM,37.0,28.0,70,30.33,10.0,Calm,Calm,-,N/A,,Clear,0,2012-10-05 12:54:00
8:54 AM,39.9,28.0,63,30.33,10.0,NW,9.2,-,N/A,,Clear,310,2012-10-05 13:54:00
9:54 AM,41.0,27.0,57,30.35,10.0,NW,11.5,-,N/A,,Partly Cloudy,320,2012-10-05 14:54:00
10:54 AM,44.1,26.1,49,30.34,10.0,NW,12.7,-,N/A,,Clear,320,2012-10-05 15:54:00
11:54 AM,45.0,26.1,48,30.37,10.0,NW,15.0,-,N/A,,Clear,310,2012-10-05 16:54:00
12:54 PM,46.0,25.0,44,30.36,10.0,NW,16.1,-,N/A,,Clear,320,2012-10-05 17:54:00
1:54 PM,48.9,26.1,41,30.33,10.0,WNW,13.8,-,N/A,,Clear,300,2012-10-05 18:54:00
2:54 PM,51.1,24.1,35,30.29,10.0,NW,12.7,-,N/A,,Clear,310,2012-10-05 19:54:00
3:54 PM,53.1,21.9,30,30.26,10.0,NNW,11.5,-,N/A,,Clear,340,2012-10-05 20:54:00
4:54 PM,54.0,19.9,26,30.25,10.0,NW,12.7,-,N/A,,Clear,310,2012-10-05 21:54:00
5:54 PM,53.1,19.9,27,30.25,10.0,NW,16.1,-,N/A,,Clear,320,2012-10-05 22:54:00
6:54 PM,48.9,21.0,33,30.27,10.0,NW,11.5,-,N/A,,Clear,310,2012-10-05 23:54:00
7:54 PM,43.0,21.0,42,30.28,10.0,NW,8.1,-,N/A,,Clear,310,2012-10-06 00:54:00
8:54 PM,41.0,23.0,49,30.29,10.0,WNW,9.2,-,N/A,,Clear,300,2012-10-06 01:54:00
9:54 PM,43.0,21.9,43,30.30,10.0,NW,10.4,-,N/A,,Clear,310,2012-10-06 02:54:00
10:54 PM,39.0,21.0,49,30.31,10.0,NW,8.1,-,N/A,,Clear,310,2012-10-06 03:54:00
11:54 PM,36.0,21.0,55,30.32,10.0,NW,9.2,-,N/A,,Clear,320,2012-10-06 04:54:00